Flag for Norway Weather past 2 weeks in Kristiansund, Norway

Now
32 °F

Broken clouds.


Feels Like: 25 °F
Forecast: 29 / 32 °F
Wind: 8 mph from Northwest

Location: Kristiansund / Kvernberget

Current Time: Dec 26, 2014 at 12:41:32 PM

Latest Report: Dec 26, 2014 at 11:50 AM


Visibility: N/A

Pressure: 30.01 "Hg

Humidity: 75%

Dew point: 25 °F

Location of KristiansundLocation

Historic Weather in Kristiansund — Graph

°F

Kristiansund temperature yesterday

Maximum temperature yesterday: 32 °F (at 7:50 PM)
Minimum temperature yesterday: 21 °F (at 12:50 AM)
Average temperature yesterday: 26 °F

Past Weeks' High & Low Weather Summary

 TemperatureHumidityPressure
High45 °F (Dec 14, 2:20 PM)100% (Dec 15, 2:20 PM)30.12 "Hg (Dec 15, 2:20 PM)
Low21 °F (Dec 25, 12:50 AM)42% (Dec 12, 1:50 AM)28.68 "Hg (Dec 11, 11:50 AM)
Average35 °F77%29.22 "Hg
* Reported Dec 11 11:20 AM — Dec 26 11:20 AM, Kristiansund, Weather by CustomWeather, © 2014

Note: Actual official high and low records may vary slightly from our data, if they occured in-between our weather recording intervals... More about our weather records

Advertising

Kristiansund weather history for previous 24 hours

 ConditionsComfort  
Time TempWeatherWind HumidityBarometerVisibility
11:20 AM
Dec 26
32 °FBroken clouds.7 mph80%30.01 "HgN/A
10:50 AM32 °FBroken clouds.9 mph75%30.01 "HgN/A
10:20 AM30 °FBroken clouds.2 mph93%30.01 "HgN/A
9:50 AM30 °FScattered showers. Partly cloudy.5 mph93%30.01 "HgN/A
9:20 AM32 °FSnow showers. Dense fog.13 mph75%30.01 "Hg2 mi
8:50 AM34 °FSnow flurries. Partly cloudy.9 mph70%30.01 "HgN/A
8:20 AM34 °FPassing clouds.13 mph70%30.01 "HgN/A
7:50 AM34 °FFog.10 mph70%30.01 "Hg2 mi
7:20 AM34 °FOvercast.12 mph70%30.01 "HgN/A
6:50 AM34 °FMostly cloudy.9 mph75%30.01 "Hg4 mi
6:20 AM34 °FMostly cloudy.16 mph75%30.01 "HgN/A
5:50 AM34 °FLight rain. Partly cloudy.10 mph81%30.01 "HgN/A
5:20 AM32 °FLow clouds.9 mph100%30.01 "HgN/A
4:50 AM32 °FLight rain. Mostly cloudy.8 mph100%30.04 "HgN/A
3:50 AM32 °FLight snow. Mostly cloudy.9 mph100%30.04 "Hg1 mi
3:20 AM32 °FLight snow. Overcast.8 mph93%30.04 "Hg1 mi
2:50 AM32 °FSleet. Partly cloudy.10 mph100%30.04 "Hg2 mi
2:20 AM34 °FLow clouds.14 mph93%30.04 "HgN/A
1:50 AM32 °FLight snow. Mostly cloudy.9 mph100%30.04 "Hg1 mi
1:20 AM32 °FChilly.18 mph100%30.07 "Hg1 mi
12:50 AM32 °FLight snow. Mostly cloudy.17 mph100%30.04 "Hg1 mi
12:20 AM34 °FLight snow. Passing clouds.13 mph93%30.07 "Hg2 mi
11:50 PM
Dec 25
32 °FIce fog.12 mph93%30.07 "Hg2 mi
11:20 PM32 °FLight snow. Mostly cloudy.9 mph100%30.07 "Hg1 mi
10:50 PM32 °FLight snow. Passing clouds.16 mph100%30.07 "HgN/A
10:20 PM32 °FLight snow. Low clouds.15 mph93%30.07 "Hg1 mi
9:50 PM32 °FLight snow. Mostly cloudy.18 mph100%30.07 "Hg1 mi
9:20 PM32 °FLight snow. Mostly cloudy.23 mph100%30.09 "Hg4 mi
8:50 PM32 °FLight snow. Overcast.13 mph87%30.07 "Hg2 mi
8:20 PM32 °FSnow showers. Dense fog.12 mph93%30.09 "Hg1 mi
7:50 PM32 °FPassing clouds.12 mph87%30.09 "HgN/A
7:20 PM30 °FThundershowers. Partly cloudy.13 mph100%30.09 "HgN/A
6:50 PM30 °FSnow flurries. Ice fog.5 mph93%30.09 "Hg3 mi
6:20 PM30 °FSnow showers. Ice fog.9 mph100%30.12 "Hg1 mi
5:50 PM30 °FSnow flurries. Ice fog.8 mph93%30.09 "Hg1 mi
5:20 PM30 °FScattered showers. Partly cloudy.8 mph80%30.12 "HgN/A
4:50 PM27 °FPassing clouds.3 mph86%30.09 "HgN/A
4:20 PM27 °FPassing clouds.3 mph80%30.09 "HgN/A
3:50 PM27 °FPassing clouds.3 mph80%30.09 "HgN/A
3:20 PM25 °FPassing clouds.3 mph93%30.09 "HgN/A
2:50 PM25 °FPassing clouds.2 mph93%30.12 "HgN/A
2:20 PM25 °FLight snow. Broken clouds.5 mph93%30.12 "Hg2 mi
1:50 PM27 °FLight snow. Partly sunny.2 mph74%30.12 "Hg1 mi
1:20 PM27 °FPartly sunny.6 mph64%30.09 "HgN/A
12:50 PM27 °FMore clouds than sun.6 mph64%30.09 "HgN/A
12:20 PM27 °FMostly cloudy.3 mph69%30.09 "HgN/A
Weather by CustomWeather, © 2014

See weather overviewHow to use our weather pages